This is the latest recevied weather packets stored in our database for station/object KD0ISH. If no packets are shown the sender has not sent any weather packets the latest 10 day(s).
| Time | Temp. | Humidity | Pressure | Rain* | Wind** | Luminosity | Snow |
|---|---|---|---|---|---|---|---|
| 1778106094 | 16.11° C | 46% | 1017.7 hPa | 0 mm | - | 353 W/m² | - |
| 1778105792 | 15.56° C | 46% | 1017.7 hPa | 0 mm | - | 363 W/m² | - |
| 1778105490 | 16.11° C | 46% | 1017.7 hPa | 0 mm | - | 360 W/m² | - |
| 1778105186 | 15.56° C | 47% | 1017.8 hPa | 0 mm | - | 390 W/m² | - |
| 1778104881 | 15.56° C | 47% | 1017.6 hPa | 0 mm | - | 463 W/m² | - |
| 1778104578 | 15.56° C | 47% | 1017.7 hPa | 0 mm | - | 467 W/m² | - |
| 1778104273 | 15.56° C | 46% | 1017.8 hPa | 0 mm | - | 174 W/m² | - |
| 1778103971 | 16.11° C | 45% | 1017.5 hPa | 0 mm | - | 444 W/m² | - |
| 1778103668 | 16.11° C | 47% | 1017.8 hPa | 0 mm | - | 443 W/m² | - |
| 1778103366 | 15.56° C | 45% | 1017.8 hPa | 0 mm | - | 451 W/m² | - |
| 1778103063 | 16.11° C | 45% | 1017.8 hPa | 0 mm | - | 434 W/m² | - |
| 1778102760 | 15.56° C | 48% | 1017.9 hPa | 0 mm | - | 440 W/m² | - |
| 1778102455 | 16.11° C | 45% | 1018.1 hPa | 0 mm | - | 494 W/m² | - |
| 1778102151 | 16.11° C | 47% | 1018.1 hPa | 0 mm | - | 505 W/m² | - |
| 1778101848 | 16.11° C | 47% | 1017.9 hPa | 0 mm | - | 485 W/m² | - |
| 1778101544 | 16.11° C | 45% | 1017.8 hPa | 0 mm | - | 529 W/m² | - |
| 1778101241 | 16.67° C | 44% | 1017.8 hPa | 0 mm | - | 556 W/m² | - |
| 1778100938 | 16.11° C | 48% | 1018.1 hPa | 0 mm | - | 560 W/m² | - |
| 1778100633 | 16.11° C | 47% | 1017.8 hPa | 0 mm | - | 561 W/m² | - |
| 1778100332 | 16.67° C | 47% | 1018.1 hPa | 0 mm | - | 523 W/m² | - |
| 1778100028 | 16.67° C | 48% | 1018.3 hPa | 0 mm | - | 576 W/m² | - |
| 1778099727 | 16.11° C | 49% | 1017.9 hPa | 0 mm | - | 581 W/m² | - |
| 1778099423 | 15.56° C | 49% | 1018.2 hPa | 0 mm | - | 530 W/m² | - |
| 1778099120 | 15.56° C | 47% | 1018.2 hPa | 0 mm | - | 527 W/m² | - |
| 1778098816 | 15.56° C | 46% | 1018.5 hPa | 0 mm | - | 573 W/m² | - |
* Rain latest hour (hover to see other rain measurements)
** Current wind speed in m/s (hover to see current wind gust speed)